Regional Weather Roundup
Issued by NWS Jackson, KY

Home | Current Version | Previous Version | Text Only | Print | Product List | Glossary Off
Versions: 1 2 3 4 5 6 7 8 9 10 11 12 13 14 15 16 17 18 19 20 21 22 23 24 25 26 27 28 29 30 31 32 33 34 35 36 37 38 39 40 41 42 43 44 45 46 47 48 49 50

325
ASUS43 KJKL 211810
RWRJKL

EAST KENTUCKY HOURLY WEATHER ROUNDUP
NATIONAL WEATHER SERVICE JACKSON KY
200 PM EDT FRI JUL 21 2017

NOTE: "FAIR" INDICATES FEW OR NO CLOUDS BELOW 12,000 FEET WITH
NO SIGNIFICANT WEATHER AND/OR OBSTRUCTIONS TO VISIBILITY.

* THESE REPORTS ARE NOT UNDER NWS QUALITY CONTROL AND MAY NOT
  REPORT WEATHER SUCH AS PRECIPITATION AND FOG.

KYZ079-080-083-085-087-088-110-112-115-119-120-211900
...EASTERN KENTUCKY...

CITY           SKY/WX    TMP DP  RH WIND       PRES   REMARKS
JACKSON        CLOUDY    88  74  63 VRB3      30.08F HX  96
6HR MIN TEMP:  75; 6HR MAX TEMP:  88; 6HR PCP: TRACE;

LONDON         PTSUNNY   90  70  51 VRB3      30.08F HX  95
6HR MIN TEMP:  75; 6HR MAX TEMP:  90;

SOMERSET*      CLOUDY    88  68  51 CALM      30.08S HX  91
MONTICELLO*    SUNNY     90  75  61 VRB7      30.09F HX 100
6HR MIN TEMP:  73; 6HR MAX TEMP:  90;

WILLIAMSBURG*  CLEAR     90  68  48 E5        30.08F HX  93
MIDDLESBORO*   PTSUNNY   88  72  58 CALM      30.09F HX  94
6HR MIN TEMP:  71; 6HR MAX TEMP:  91;

HARLAN APT*    MOCLDY    90  66  45 N3        30.10F HX  92
PIKE CO APT*     N/A     84  71  66 CALM      30.09F
BIG SANDY APT* PTCLDY    86  69  57 SW3       30.08F HX  90
6HR MIN TEMP:  76; 6HR MAX TEMP:  86;

MOREHEAD APT*  CLOUDY    82  70  65 SW6       30.07F
$$

KYZ035-036-041-042-044-050-067-078-099-211900
...CENTRAL KENTUCKY...

CITY           SKY/WX    TMP DP  RH WIND       PRES   REMARKS
MT STERLING*   MOSUNNY   90  72  55 SW7       30.06F HX  96
FLEMING/MASON* MOSUNNY   83  73  71 SW7       30.05F HX  90
DANVILLE*      CLOUDY    90  70  51 S5        30.07F HX  95
LEXINGTON      MOSUNNY   91  70  49 SW10      30.04F HX  96
6HR MIN TEMP:  77; 6HR MAX TEMP:  91;

FRANKFORT      MOSUNNY   91  73  55 SW7       30.02F HX  99
6HR MIN TEMP:  77; 6HR MAX TEMP:  91;

LOUISVILLE     CLOUDY    95  74  50 S13G18    30.00F HX 105
6HR MIN TEMP:  81; 6HR MAX TEMP:  95;

LEBANON*         N/A     91  72  52 SE6       30.05F HX  98
GLASGOW*       MOSUNNY   92  71  50 W5        30.04F HX  98
BOWLING GREEN  MOSUNNY   93  74  53 S7        30.03F HX 103
6HR MIN TEMP:  78; 6HR MAX TEMP:  94;

$$

KYZ091>093-OHZ055-061-077-WVZ005-015-034-035-042-211900
...SOUTHERN OHIO/WEST VIRGINIA...

CITY           SKY/WX    TMP DP  RH WIND       PRES   REMARKS
COVINGTON      CLOUDY    83  75  77 S8        30.04S HX  90
COLUMBUS       CLOUDY    78  74  87 SW8       29.99R
DAYTON         CLOUDY    77  69  76 SW9       30.05R
WILMINGTON     PTSUNNY   76  72  87 SW9       30.04R
HUNTINGTON     CLOUDY    79  70  74 SW5       30.05F
CHARLESTON     CLOUDY    78  72  81 SE6       30.03F
PINEVILLE*     PTSUNNY   81  71  72 MISG      30.16F
BECKLEY        LGT RAIN  77  66  68 NW17G31   30.16S
BLUEFIELD      CLOUDY    78  65  63 NW14G24   30.18F
LOGAN CO APT*    N/A     82  68  61 CALM      30.09F
$$

VAZ002-007-008-TNZ017-027-036-066-071-211900
...SOUTHWEST VIRGINIA/EAST TENNESSEE...

CITY           SKY/WX    TMP DP  RH WIND       PRES   REMARKS
WISE*          PTSUNNY   84  66  54 NW10      30.19F
JONESVILLE*      N/A     90  70  51 NW6       30.11F HX  95
ABINGDON*      CLOUDY    85  71  61 N16G24    30.13F HX  90
BRISTOL        PTSUNNY   91  69  48 W8        30.10F HX  96
MORRISTOWN*    PTCLDY    90  68  48 CALM      30.08F HX  93
SEVIERVILLE*     N/A     91  64  40 NE9       30.07S HX  93
KNOXVILLE      PTSUNNY   94  67  41 NW7       30.06F HX  97
LAFOLLETTE*    CLOUDY    86  73  66 CALM      30.11F HX  93
OAK RIDGE      MOSUNNY   92  70  48 SE6       30.08F HX  97
CROSSVILLE     MOSUNNY   87  69  54 E3        30.13F HX  91
NASHVILLE      PTSUNNY   94  71  47 E3        30.05F HX 101
$$

...KEY TO REMARKS...
VSB - VISIBILITY IN MILES
WCI - WIND CHILL INDEX
HX  - HEAT INDEX

$$




USA.gov is the U.S. government's official web portal to all federal, state and local government web resources and services.